Hourly Data Report for April 15, 2017

OTTAWA INTL A
ONTARIO

45°19'00.000" N
75°40'00.000" W
114.90 m
6106001
71628
YOW

Download Data

Hourly Data (April 2017)
Hourly Data Report for April 15, 2017
TIME
LST
Temp Definition
°C
Dew Point Definition
°C
Rel Hum Definition
%
Precip. Amount Definition
mm

Wind Dir Definition
10's deg

Wind Spd Definition
km/h
Visibility Definition
km
Stn Press Definition
kPa
Hmdx Definition


Wind Chill Definition


Weather Definition


00:00 7.5 -4.9 41   19 9 24.1 101.32     LegendNANA
01:00 7.2 -4.9 42   18 7 24.1 101.23     Clear
02:00 3.5 -5.2 53   17 8 24.1 101.19     LegendNANA
03:00 4.8 -4.5 51   17 11 24.1 101.15     LegendNANA
04:00 1.3 -3.8 69   17 6 24.1 101.09     Clear
05:00 1.1 -3.8 70   36 1 24.1 101.04     LegendNANA
06:00 0.4 -3.3 76   6 5 24.1 101.03     LegendNANA
07:00 5.5 -1.9 59   10 5 24.1 101.00     Mainly Clear
08:00 9.3 -2.6 43   9 7 24.1 100.92     LegendNANA
09:00 12.1 -2.5 36   13 3 24.1 100.81     LegendNANA
10:00 15.0 -2.4 30   17 12 24.1 100.68     Mainly Clear
11:00 16.1 -1.4 30   19 8 24.1 100.55     LegendNANA
12:00 17.0 -0.1 31   17 17 24.1 100.42     LegendNANA
13:00 17.4 1.5 34   20 17 24.1 100.33     Mostly Cloudy
14:00 13.2 4.9 57   22 30 16.1 100.33     Rain
15:00 9.9 8.2 89   22 16 24.1 100.27     Rain
16:00 9.8 9.4 97   15 14 6.4 100.06     Rain, Fog
17:00 9.9 9.6 98   17 12 4.0 99.95     Rain, Fog
18:00 10.0 9.9 99   17 7 4.0 99.86     Rain, Fog
19:00 10.1 10.1 100   19 5 6.4 99.78     Fog
20:00 10.2 10.2 100   20 8 6.4 99.74     Fog
21:00 10.3 10.3 100   21 9 6.4 99.68     Drizzle, Fog
22:00 10.1 10.1 100   21 8 6.4 99.61     Fog
23:00 10.6 10.6 100   19 6 6.4 99.51     Fog

Notes on Data Quality.

Legend

  • E = Estimated
  • M = Missing
  • NA = Not Available*
  • [empty] = Indicates an unobserved value
Date modified: